FENGYUN 1C DEB

Satellite information

Favourite Embed

Satellite Type and Status

DEBRISIN ORBIT

Key statistics

Satellite FENGYUN 1C DEB at a glance.

Uptime

9493

Days in orbit

Revolutions

≈ 14.3

Per day

Orbit

SSO

Sun Synchronous Orbit

Inclination

99.3

Latest

Satellite identification and parameters

Extended collection of information and parameters for FENGYUN 1C DEB.

Object identification

Identified? True

Debris? True

Object name: FENGYUN 1C DEB

International designator: 1999-025CTA

Object number (NORAD): 32156

Object ID (CCSDS): 32156

Country: PEOPLES REPUBLIC OF CHINA (PRC)

Current information (Y/N): Y

RCS size: SMALL

Orbital parameters

Period: 100.598 minutes

Inclination: 99.3348 deg

SMA: 7165.038 km

Apoapsis: 845.485 km

Periapsis: 728.322 km

RAAN: 276.2921 deg

Eccentricy: 0.008176

Argument of periapsis: 340.1634 deg

Mean anomaly: 19.6373 deg

Mean motion: 14.31446019 rev/day

Mean motion (dot): 0.00001205 rev/day2

B* drag term: 0.00045625 1/REarth

Two-line elements (TLE)

Creation date: May 4, 2025, 2:26 a.m.

Reference frame: TEME

Reference center: EARTH

Epoch: May 3, 2025, 4:53 p.m. UTC

TLE line 0: 0 FENGYUN 1C DEB

TLE line 1: 1 32156U 99025CTA 25123.70350220 .00001205 00000-0 45625-3 0 9997

TLE line 2: 2 32156 99.3348 276.2921 0081760 340.1634 19.6373 14.31446019616293

Live tracking on map

Real-time ground track for satellite FENGYUN 1C DEB.

In-orbit conjunctions

A list of the most updated potential collisions computed for object FENGYUN 1C DEB.

Target Orbit TCA Probability of collision Miss distance Type
CZ-6A DEB LEO 2025-01-26 07:08:06 0.0001538114 184.0 (m) DEBRIS
CZ-6A DEB LEO 2025-01-02 22:07:07 0.0001941832 356.0 (m) DEBRIS
COSMOS 2251 DEB LEO 2024-11-17 13:34:05 0.0001616888 904.0 (m) DEBRIS

Associated space launch

Chinese polar orbiting meteorological satellite

FENGYUN 1C DEB was lifted into orbit during the mission ‘Long March 4B | Feng Yun 1C’, on board a Long March 4B space rocket.

The launch took place on May 10, 1999, 1:33 a.m. from Launch Complex 7.

For more information about the launch, click the button.

Launch to space Long March 4B | Feng Yun 1C
Long March 4B | Feng Yun 1C

Agency: N/A

Status: Launch Successful

Launch date: May 10, 1999, 1:33 a.m. UTC

Rocket: Long March 4B

Launch pad: Launch Complex 7

Location: Taiyuan Satellite Launch Center, People's Republic of China

...

Latest news about this satellite

There are no fresh news available about this satellite. Check back as we update our databases every day.


Newsletter sign-up

Weekly statistics, charts and insights to help you stay on top of the space industry.